Year,Month,Day,Hour,Minute,Value (Times are PST for temperature in C)
2012,04,01,00,00,0.60
2012,04,01,00,01,0.60
2012,04,01,00,02,0.60
2012,04,01,00,03,0.60
2012,04,01,00,04,0.60
2012,04,01,00,05,0.60
2012,04,01,00,06,0.60
2012,04,01,00,07,0.60
2012,04,01,00,08,0.60
2012,04,01,00,09,0.60
2012,04,01,00,10,0.60
2012,04,01,00,11,0.60
2012,04,01,00,12,0.60
2012,04,01,00,13,0.60
2012,04,01,00,14,0.60
2012,04,01,00,15,0.60
2012,04,01,00,16,0.60
2012,04,01,00,17,0.60
2012,04,01,00,18,0.60
2012,04,01,00,19,0.60
2012,04,01,00,20,0.60
2012,04,01,00,21,0.60
2012,04,01,00,22,0.60
2012,04,01,00,23,0.60
2012,04,01,00,24,0.60
2012,04,01,00,25,0.60
2012,04,01,00,26,0.60
2012,04,01,00,27,0.60
2012,04,01,00,28,0.60
2012,04,01,00,29,0.70
2012,04,01,00,30,0.70
2012,04,01,00,31,0.70
2012,04,01,00,32,0.70
2012,04,01,00,33,0.70
2012,04,01,00,34,0.60
2012,04,01,00,35,0.60
2012,04,01,00,36,0.60
2012,04,01,00,37,0.60
2012,04,01,00,38,0.60
2012,04,01,00,39,0.60
2012,04,01,00,40,0.50
2012,04,01,00,41,0.50
2012,04,01,00,42,0.50
2012,04,01,00,43,0.40
2012,04,01,00,44,0.40
2012,04,01,00,45,0.40
2012,04,01,00,46,0.40
2012,04,01,00,47,0.40
2012,04,01,00,48,0.30
2012,04,01,00,49,0.30
2012,04,01,00,50,0.30
2012,04,01,00,51,0.30
2012,04,01,00,52,0.30
2012,04,01,00,53,0.30
2012,04,01,00,54,0.30
2012,04,01,00,55,0.30
2012,04,01,00,56,0.30
2012,04,01,00,57,0.30
2012,04,01,00,58,0.30
2012,04,01,00,59,0.30
2012,04,01,01,00,0.30
2012,04,01,01,01,0.30
2012,04,01,01,02,0.30
2012,04,01,01,03,0.30
2012,04,01,01,04,0.30
2012,04,01,01,05,0.30
2012,04,01,01,06,0.30
2012,04,01,01,07,0.30
2012,04,01,01,08,0.30
2012,04,01,01,09,0.30
2012,04,01,01,10,0.30
2012,04,01,01,11,0.30
2012,04,01,01,12,0.30
2012,04,01,01,13,0.30
2012,04,01,01,14,0.30
2012,04,01,01,15,0.30
2012,04,01,01,16,0.30
2012,04,01,01,17,0.30
2012,04,01,01,18,0.30
2012,04,01,01,19,0.30
2012,04,01,01,20,0.30
2012,04,01,01,21,0.30
2012,04,01,01,22,0.30
2012,04,01,01,23,0.30
2012,04,01,01,24,0.30
2012,04,01,01,25,0.30
2012,04,01,01,26,0.30
2012,04,01,01,27,0.30
2012,04,01,01,28,0.30
2012,04,01,01,29,0.30
2012,04,01,01,30,0.30
2012,04,01,01,31,0.30
2012,04,01,01,32,0.30
2012,04,01,01,33,0.30
2012,04,01,01,34,0.30
2012,04,01,01,35,0.30
2012,04,01,01,36,0.30
2012,04,01,01,37,0.30
2012,04,01,01,38,0.30
2012,04,01,01,39,0.30
2012,04,01,01,40,0.30
2012,04,01,01,41,0.30
2012,04,01,01,42,0.30
2012,04,01,01,43,0.30
2012,04,01,01,44,0.30
2012,04,01,01,45,0.30
2012,04,01,01,46,0.30
2012,04,01,01,47,0.30
2012,04,01,01,48,0.30
2012,04,01,01,49,0.30
2012,04,01,01,50,0.30
2012,04,01,01,51,0.30
2012,04,01,01,52,0.30
2012,04,01,01,53,0.30
2012,04,01,01,54,0.30
2012,04,01,01,55,0.30
2012,04,01,01,56,0.30
2012,04,01,01,57,0.30
2012,04,01,01,58,0.30
2012,04,01,01,59,0.30
2012,04,01,02,00,0.30
2012,04,01,02,01,0.30
2012,04,01,02,02,0.30
2012,04,01,02,03,0.30
2012,04,01,02,04,0.30
2012,04,01,02,05,0.30
2012,04,01,02,06,0.30
2012,04,01,02,07,0.30
2012,04,01,02,08,0.30
2012,04,01,02,09,0.30
2012,04,01,02,10,0.30
2012,04,01,02,11,0.30
2012,04,01,02,12,0.30
2012,04,01,02,13,0.30
2012,04,01,02,14,0.30
2012,04,01,02,15,0.30
2012,04,01,02,16,0.30
2012,04,01,02,17,0.20
2012,04,01,02,18,0.20
2012,04,01,02,19,0.20
2012,04,01,02,20,0.20
2012,04,01,02,21,0.20
2012,04,01,02,22,0.20
2012,04,01,02,23,0.20
2012,04,01,02,24,0.20
2012,04,01,02,25,0.20
2012,04,01,02,26,0.20
2012,04,01,02,27,0.20
2012,04,01,02,28,0.20
2012,04,01,07,34,2.70
2012,04,01,07,35,2.70
2012,04,01,07,36,2.70
2012,04,01,07,37,2.70
2012,04,01,07,38,2.70
2012,04,01,07,39,2.70
2012,04,01,07,40,2.70
2012,04,01,07,41,2.60
2012,04,01,07,42,2.70
2012,04,01,07,43,2.70
2012,04,01,07,44,2.70
2012,04,01,07,45,2.70
2012,04,01,07,46,2.70
2012,04,01,07,47,2.70
2012,04,01,07,48,2.70
2012,04,01,07,49,2.70
2012,04,01,07,50,2.70
2012,04,01,07,51,2.70
2012,04,01,07,52,2.70
2012,04,01,07,53,2.70
2012,04,01,07,54,2.70
2012,04,01,07,55,2.70
2012,04,01,07,56,2.80
2012,04,01,07,57,2.80
2012,04,01,07,58,2.80
2012,04,01,07,59,2.80
2012,04,01,08,00,2.90
2012,04,01,08,01,2.90
2012,04,01,08,02,2.90
2012,04,01,08,03,2.90
2012,04,01,08,04,2.90
2012,04,01,08,05,2.90
2012,04,01,08,06,2.90
2012,04,01,08,07,2.90
2012,04,01,08,08,2.90
2012,04,01,08,09,3.00
2012,04,01,08,10,3.00
2012,04,01,08,11,3.10
2012,04,01,08,12,3.10
2012,04,01,08,13,3.10
2012,04,01,08,14,3.10
2012,04,01,08,15,3.20
2012,04,01,08,16,3.20
2012,04,01,08,17,3.20
2012,04,01,08,18,3.20
2012,04,01,08,19,3.20
2012,04,01,08,20,3.20
2012,04,01,08,21,3.20
2012,04,01,08,22,3.20
2012,04,01,08,23,3.20
2012,04,01,08,24,3.20
2012,04,01,08,25,3.20
2012,04,01,08,26,3.20
2012,04,01,08,27,3.20
2012,04,01,08,28,3.20
2012,04,01,08,29,3.20
2012,04,01,08,30,3.20
2012,04,01,08,31,3.20
2012,04,01,08,32,3.20
2012,04,01,08,33,3.20
2012,04,01,08,34,3.20
2012,04,01,08,35,3.10
2012,04,01,08,36,3.10
2012,04,01,08,37,3.10
2012,04,01,08,38,3.10
2012,04,01,08,39,3.10
2012,04,01,08,40,3.10
2012,04,01,08,41,3.10
2012,04,01,08,42,3.10
2012,04,01,08,43,3.00
2012,04,01,08,44,3.00
2012,04,01,08,45,3.00
2012,04,01,08,46,3.00
2012,04,01,08,47,3.00
2012,04,01,08,48,3.00
2012,04,01,08,49,3.00
2012,04,01,08,50,3.00
2012,04,01,08,51,3.00
2012,04,01,08,52,3.10
2012,04,01,08,53,3.10
2012,04,01,08,54,3.10
2012,04,01,08,55,3.20
2012,04,01,08,56,3.20
2012,04,01,08,57,3.30
2012,04,01,08,58,3.30
2012,04,01,08,59,3.30
2012,04,01,09,00,3.40
2012,04,01,09,01,3.50
2012,04,01,09,02,3.50
2012,04,01,09,03,3.60
2012,04,01,09,04,3.60
2012,04,01,09,05,3.70
2012,04,01,09,06,3.70
2012,04,01,09,07,3.80
2012,04,01,09,08,3.80
2012,04,01,09,09,3.80
2012,04,01,09,10,3.90
2012,04,01,09,11,3.90
2012,04,01,09,12,3.90
2012,04,01,09,13,3.90
2012,04,01,09,14,3.90
2012,04,01,09,15,3.90
2012,04,01,09,16,4.00
2012,04,01,09,17,4.00
2012,04,01,09,18,4.00
2012,04,01,09,19,4.00
2012,04,01,09,20,4.00
2012,04,01,09,21,4.00
2012,04,01,09,22,3.90
2012,04,01,09,23,3.90
2012,04,01,09,24,3.90
2012,04,01,09,25,3.90
2012,04,01,09,26,3.90
2012,04,01,09,27,3.90
2012,04,01,09,28,3.90
2012,04,01,09,29,3.90
2012,04,01,09,30,4.00
2012,04,01,09,31,4.00
2012,04,01,09,32,4.10
2012,04,01,09,33,4.10
2012,04,01,09,34,4.20
2012,04,01,09,35,4.20
2012,04,01,09,36,4.30
2012,04,01,09,37,4.40
2012,04,01,09,38,4.50
2012,04,01,09,39,4.60
2012,04,01,09,40,4.70
2012,04,01,09,41,4.70
2012,04,01,09,42,4.80
2012,04,01,09,43,4.90
2012,04,01,09,44,5.00
2012,04,01,09,45,5.00
2012,04,01,09,46,5.00
2012,04,01,09,47,5.10
2012,04,01,09,48,5.10
2012,04,01,09,49,5.10
2012,04,01,09,50,5.10
2012,04,01,09,51,5.00
2012,04,01,09,52,5.00
2012,04,01,09,53,5.00
2012,04,01,09,54,5.10
2012,04,01,09,55,5.10
2012,04,01,09,56,5.10
2012,04,01,09,57,5.10
2012,04,01,09,58,5.10
2012,04,01,09,59,5.10
2012,04,01,10,00,5.20
2012,04,01,10,01,5.20
2012,04,01,10,02,5.20
2012,04,01,10,03,5.20
2012,04,01,10,04,5.20
2012,04,01,10,05,5.20
2012,04,01,10,06,5.20
2012,04,01,10,07,5.20
2012,04,01,10,08,5.20
2012,04,01,10,09,5.20
2012,04,01,10,10,5.30
2012,04,01,10,11,5.30
2012,04,01,10,12,5.30
2012,04,01,10,13,5.30
2012,04,01,10,14,5.30
2012,04,01,10,15,5.20
2012,04,01,10,16,5.20
2012,04,01,10,17,5.20
2012,04,01,10,18,5.20
2012,04,01,10,19,5.20
2012,04,01,10,20,5.20
2012,04,01,10,21,5.10
2012,04,01,10,22,5.10
2012,04,01,10,23,5.10
2012,04,01,10,24,5.10
2012,04,01,10,25,5.10
2012,04,01,10,26,5.10
2012,04,01,10,27,5.10
2012,04,01,10,28,5.10
2012,04,01,10,29,5.10
2012,04,01,10,30,5.10
2012,04,01,10,31,5.10
2012,04,01,10,32,5.10
2012,04,01,10,33,5.10
2012,04,01,10,34,5.10
2012,04,01,10,35,5.10
2012,04,01,10,36,5.10
2012,04,01,10,37,5.10
2012,04,01,10,38,5.10
2012,04,01,10,39,5.20
2012,04,01,10,40,5.20
2012,04,01,10,41,5.20
2012,04,01,10,42,5.20
2012,04,01,10,43,5.20
2012,04,01,10,44,5.30
2012,04,01,10,45,5.30
2012,04,01,10,46,5.30
2012,04,01,10,47,5.40
2012,04,01,10,48,5.40
2012,04,01,10,49,5.40
2012,04,01,10,50,5.50
2012,04,01,10,51,5.50
2012,04,01,10,52,5.60
2012,04,01,10,53,5.60
2012,04,01,10,54,5.60
2012,04,01,10,55,5.60
2012,04,01,10,56,5.70
2012,04,01,10,57,5.70
2012,04,01,10,58,5.80
2012,04,01,10,59,5.80
2012,04,01,11,00,5.80
2012,04,01,11,01,5.80
2012,04,01,11,02,5.70
2012,04,01,11,03,5.70
2012,04,01,11,04,5.70
2012,04,01,11,05,5.70
2012,04,01,11,06,5.70
2012,04,01,11,07,5.70
2012,04,01,11,08,5.70
2012,04,01,11,09,5.80
2012,04,01,11,10,5.90
2012,04,01,11,11,5.90
2012,04,01,11,12,5.90
2012,04,01,11,13,5.80
2012,04,01,11,14,5.80
2012,04,01,11,15,5.80
2012,04,01,11,16,5.80
2012,04,01,11,17,5.80
2012,04,01,11,18,5.90
2012,04,01,11,19,6.00
2012,04,01,11,20,6.00
2012,04,01,11,21,6.00
2012,04,01,11,22,6.00
2012,04,01,11,23,5.90
2012,04,01,11,24,5.90
2012,04,01,11,25,5.90
2012,04,01,11,26,5.80
2012,04,01,11,27,5.80
2012,04,01,11,28,5.80
2012,04,01,11,29,5.80
2012,04,01,11,30,5.80
2012,04,01,11,31,5.80
2012,04,01,11,32,5.80
2012,04,01,11,33,5.70
2012,04,01,11,34,5.70
2012,04,01,11,35,5.80
2012,04,01,11,36,5.80
2012,04,01,11,37,5.90
2012,04,01,11,38,5.90
2012,04,01,11,39,5.90
2012,04,01,11,40,5.90
2012,04,01,11,41,5.90
2012,04,01,11,42,5.80
2012,04,01,11,43,5.90
2012,04,01,11,44,5.90
2012,04,01,11,45,5.90
2012,04,01,11,46,5.80
2012,04,01,11,47,5.80
2012,04,01,11,48,5.80
2012,04,01,11,49,5.70
2012,04,01,11,50,5.60
2012,04,01,11,51,5.50
2012,04,01,11,52,5.50
2012,04,01,11,53,5.40
2012,04,01,11,54,5.40
2012,04,01,11,55,5.40
2012,04,01,11,56,5.50
2012,04,01,11,57,5.50
2012,04,01,11,58,5.60
2012,04,01,11,59,5.60
2012,04,01,12,00,5.60
2012,04,01,12,01,5.60
2012,04,01,12,02,5.60
2012,04,01,12,03,5.50
2012,04,01,12,04,5.50
2012,04,01,12,05,5.60
2012,04,01,12,06,5.60
2012,04,01,12,07,5.60
2012,04,01,12,08,5.60
2012,04,01,12,09,5.70
2012,04,01,12,10,5.70
2012,04,01,12,11,5.80
2012,04,01,12,12,5.80
2012,04,01,12,13,5.80
2012,04,01,12,14,5.80
2012,04,01,12,15,5.90
2012,04,01,12,16,5.90
2012,04,01,12,17,5.90
2012,04,01,12,18,5.90
2012,04,01,12,19,5.80
2012,04,01,12,20,5.80
2012,04,01,12,21,5.70
2012,04,01,12,22,5.70
2012,04,01,12,23,5.70
2012,04,01,12,24,5.70
2012,04,01,12,25,5.70
2012,04,01,12,26,5.70
2012,04,01,12,27,5.80
2012,04,01,12,28,5.80
2012,04,01,12,29,5.90
2012,04,01,12,30,5.90
2012,04,01,12,31,5.90
2012,04,01,12,32,5.90
2012,04,01,12,33,6.00
2012,04,01,12,34,6.00
2012,04,01,12,35,6.00
2012,04,01,12,36,6.00
2012,04,01,12,37,6.00
2012,04,01,12,38,6.00
2012,04,01,12,39,5.90
2012,04,01,12,40,5.90
2012,04,01,12,41,5.90
2012,04,01,12,42,5.90
2012,04,01,12,43,5.90
2012,04,01,12,44,5.80
2012,04,01,12,45,5.80
2012,04,01,12,46,5.70
2012,04,01,12,47,5.70
2012,04,01,12,48,5.80
2012,04,01,12,49,5.80
2012,04,01,12,50,5.70
2012,04,01,12,51,5.70
2012,04,01,12,52,5.70
2012,04,01,12,53,5.70
2012,04,01,12,54,5.70
2012,04,01,12,55,5.70
2012,04,01,12,56,5.70
2012,04,01,12,57,5.70
2012,04,01,12,58,5.80
2012,04,01,12,59,5.80
2012,04,01,13,00,5.70
2012,04,01,13,01,5.70
2012,04,01,13,02,5.80
2012,04,01,13,03,5.90
2012,04,01,13,04,5.90
2012,04,01,13,05,5.90
2012,04,01,13,06,5.90
2012,04,01,13,07,5.90
2012,04,01,13,08,5.80
2012,04,01,13,09,5.80
2012,04,01,13,10,5.80
2012,04,01,13,11,5.80
2012,04,01,13,12,5.80
2012,04,01,13,13,5.70
2012,04,01,13,14,5.70
2012,04,01,13,15,5.70
2012,04,01,13,16,5.70
2012,04,01,13,17,5.70
2012,04,01,13,18,5.70
2012,04,01,13,19,5.70
2012,04,01,13,20,5.70
2012,04,01,13,21,5.80
2012,04,01,13,22,5.80
2012,04,01,13,23,5.80
2012,04,01,13,24,5.80
2012,04,01,13,25,5.80
2012,04,01,13,26,5.80
2012,04,01,13,27,5.90
2012,04,01,13,28,5.90
2012,04,01,13,29,6.00
2012,04,01,13,30,6.00
2012,04,01,13,31,6.10
2012,04,01,13,32,6.20
2012,04,01,13,33,6.20
2012,04,01,13,34,6.30
2012,04,01,13,35,6.30
2012,04,01,13,36,6.30
2012,04,01,13,37,6.30
2012,04,01,13,38,6.40
2012,04,01,13,39,6.30
2012,04,01,13,40,6.30
2012,04,01,13,41,6.40
2012,04,01,13,42,6.40
2012,04,01,13,43,6.50
2012,04,01,13,44,6.40
2012,04,01,13,45,6.30
2012,04,01,13,46,6.30
2012,04,01,13,47,6.30
2012,04,01,13,48,6.20
2012,04,01,13,49,6.20
2012,04,01,13,50,6.20
2012,04,01,13,51,6.30
2012,04,01,13,52,6.30
2012,04,01,13,53,6.30
2012,04,01,13,54,6.20
2012,04,01,13,55,6.20
2012,04,01,13,56,6.10
2012,04,01,13,57,6.10
2012,04,01,13,58,6.00
2012,04,01,13,59,5.90
2012,04,01,14,00,6.00
2012,04,01,14,01,6.00
2012,04,01,14,02,6.10
2012,04,01,14,03,6.10
2012,04,01,14,04,6.20
2012,04,01,14,05,6.30
2012,04,01,14,06,6.20
2012,04,01,14,07,6.30
2012,04,01,14,08,6.30
2012,04,01,14,09,6.30
2012,04,01,14,10,6.30
2012,04,01,14,11,6.30
2012,04,01,14,12,6.30
2012,04,01,14,13,6.30
2012,04,01,14,14,6.30
2012,04,01,14,15,6.30
2012,04,01,14,16,6.30
2012,04,01,14,17,6.40
2012,04,01,14,18,6.50
2012,04,01,14,19,6.50
2012,04,01,14,20,6.40
2012,04,01,14,21,6.40
2012,04,01,14,22,6.50
2012,04,01,14,23,6.50
2012,04,01,14,24,6.50
2012,04,01,14,25,6.60
2012,04,01,14,26,6.70
2012,04,01,14,27,6.60
2012,04,01,14,28,6.50
2012,04,01,14,29,6.50
2012,04,01,14,30,6.40
2012,04,01,14,31,6.40
2012,04,01,14,32,6.40
2012,04,01,14,33,6.40
2012,04,01,14,34,6.40
2012,04,01,14,35,6.30
2012,04,01,14,36,6.30
2012,04,01,14,37,6.30
2012,04,01,14,38,6.30
2012,04,01,14,39,6.30
2012,04,01,14,40,6.30
2012,04,01,14,41,6.30
2012,04,01,14,42,6.30
2012,04,01,14,43,6.40
2012,04,01,14,44,6.40
2012,04,01,14,45,6.40
2012,04,01,14,46,6.50
2012,04,01,14,47,6.50
2012,04,01,14,48,6.60
2012,04,01,14,49,6.60
2012,04,01,14,50,6.60
2012,04,01,14,51,6.60
2012,04,01,14,52,6.60
2012,04,01,14,53,6.60
2012,04,01,14,54,6.70
2012,04,01,14,55,6.70
2012,04,01,14,56,6.70
2012,04,01,14,57,6.70
2012,04,01,14,58,6.70
2012,04,01,14,59,6.80
2012,04,01,15,00,6.80
2012,04,01,15,01,6.80
2012,04,01,15,02,6.80
2012,04,01,15,03,6.80
2012,04,01,15,04,6.80
2012,04,01,15,05,6.80
2012,04,01,15,06,6.80
2012,04,01,15,07,6.80
2012,04,01,15,08,6.80
2012,04,01,15,09,6.80
2012,04,01,15,10,6.80
2012,04,01,15,11,6.80
2012,04,01,15,12,6.90
2012,04,01,15,13,6.90
2012,04,01,15,14,6.90
2012,04,01,15,15,6.90
2012,04,01,15,16,6.90
2012,04,01,15,17,6.90
2012,04,01,15,18,6.90
2012,04,01,15,19,6.90
2012,04,01,15,20,6.90
2012,04,01,15,21,7.00
2012,04,01,15,22,7.10
2012,04,01,15,23,7.20
2012,04,01,15,24,7.20
2012,04,01,15,25,7.20
2012,04,01,15,26,7.10
2012,04,01,15,27,7.10
2012,04,01,15,28,7.00
2012,04,01,15,29,7.00
2012,04,01,15,30,7.10
2012,04,01,15,31,7.10
2012,04,01,15,32,7.10
2012,04,01,15,33,7.00
2012,04,01,15,34,6.90
2012,04,01,15,35,6.80
2012,04,01,15,36,6.80
2012,04,01,15,37,6.80
2012,04,01,15,38,6.80
2012,04,01,15,39,6.80
2012,04,01,15,40,6.80
2012,04,01,15,41,6.80
2012,04,01,15,42,6.80
2012,04,01,15,43,6.80
2012,04,01,15,44,6.80
2012,04,01,15,45,6.80
2012,04,01,15,46,6.80
2012,04,01,15,47,6.90
2012,04,01,15,48,6.90
2012,04,01,15,49,6.90
2012,04,01,15,50,7.00
2012,04,01,15,51,6.90
2012,04,01,15,52,6.90
2012,04,01,15,53,6.90
2012,04,01,15,54,6.90
2012,04,01,15,55,6.90
2012,04,01,15,56,6.90
2012,04,01,15,57,6.90
2012,04,01,15,58,6.90
2012,04,01,15,59,6.90
2012,04,01,16,00,6.90
2012,04,01,16,01,6.90
2012,04,01,16,02,6.90
2012,04,01,16,03,6.90
2012,04,01,16,04,6.90
2012,04,01,16,05,6.90
2012,04,01,16,06,6.90
2012,04,01,16,07,6.90
2012,04,01,16,08,6.90
2012,04,01,16,09,6.90
2012,04,01,16,10,6.90
2012,04,01,16,11,6.90
2012,04,01,16,12,6.90
2012,04,01,16,13,6.90
2012,04,01,16,14,6.90
2012,04,01,16,15,6.90
2012,04,01,16,16,6.80
2012,04,01,16,17,6.90
2012,04,01,16,18,6.90
2012,04,01,16,19,6.90
2012,04,01,16,20,6.80
2012,04,01,16,21,6.80
2012,04,01,16,22,6.80
2012,04,01,16,23,6.80
2012,04,01,16,24,6.80
2012,04,01,16,25,6.80
2012,04,01,16,26,6.90
2012,04,01,16,27,6.90
2012,04,01,16,28,6.90
2012,04,01,16,29,6.90
2012,04,01,16,30,6.90
2012,04,01,16,31,6.90
2012,04,01,16,32,6.90
2012,04,01,16,33,6.90
2012,04,01,16,34,6.90
2012,04,01,16,35,6.90
2012,04,01,16,36,6.90
2012,04,01,16,37,7.00
2012,04,01,16,38,7.00
2012,04,01,16,39,6.90
2012,04,01,16,40,6.90
2012,04,01,16,41,6.90
2012,04,01,16,42,6.90
2012,04,01,16,43,6.80
2012,04,01,16,44,6.80
2012,04,01,16,45,6.80
2012,04,01,16,46,6.80
2012,04,01,16,47,6.80
2012,04,01,16,48,6.80
2012,04,01,16,49,6.80
2012,04,01,16,50,6.80
2012,04,01,16,51,6.90
2012,04,01,16,52,6.90
2012,04,01,16,53,6.90
2012,04,01,16,54,6.90
2012,04,01,16,55,6.90
2012,04,01,16,56,6.90
2012,04,01,16,57,6.90
2012,04,01,16,58,7.00
2012,04,01,16,59,6.90
2012,04,01,17,00,6.90
2012,04,01,17,01,7.00
2012,04,01,17,02,7.00
2012,04,01,17,03,6.90
2012,04,01,17,04,6.90
2012,04,01,17,05,6.80
2012,04,01,17,06,6.80
2012,04,01,17,07,6.80
2012,04,01,17,08,6.80
2012,04,01,17,09,6.90
2012,04,01,17,10,6.90
2012,04,01,17,11,6.90
2012,04,01,17,12,6.90
2012,04,01,17,13,6.90
2012,04,01,17,14,6.90
2012,04,01,17,15,6.90
2012,04,01,17,16,6.90
2012,04,01,17,17,6.90
2012,04,01,17,18,6.90
2012,04,01,17,19,6.90
2012,04,01,17,20,7.00
2012,04,01,17,21,7.00
2012,04,01,17,22,7.10
2012,04,01,17,23,7.10
2012,04,01,17,24,7.10
2012,04,01,17,25,7.00
2012,04,01,17,26,7.00
2012,04,01,17,27,7.00
2012,04,01,17,28,7.00
2012,04,01,17,29,7.00
2012,04,01,17,30,7.00
2012,04,01,17,31,7.00
2012,04,01,17,32,6.90
2012,04,01,17,33,6.90
2012,04,01,17,34,6.90
2012,04,01,17,35,6.90
2012,04,01,17,36,6.90
2012,04,01,17,37,6.80
2012,04,01,17,38,6.80
2012,04,01,17,39,6.80
2012,04,01,17,40,6.80
2012,04,01,17,41,6.80
2012,04,01,17,42,6.80
2012,04,01,17,43,6.80
2012,04,01,17,44,6.80
2012,04,01,17,45,6.80
2012,04,01,17,46,6.80
2012,04,01,17,47,6.80
2012,04,01,17,48,6.80
2012,04,01,17,49,6.80
2012,04,01,17,50,6.80
2012,04,01,17,51,6.80
2012,04,01,17,52,6.80
2012,04,01,17,53,6.70
2012,04,01,17,54,6.70
2012,04,01,17,55,6.70
2012,04,01,17,56,6.70
2012,04,01,17,57,6.70
2012,04,01,17,58,6.70
2012,04,01,17,59,6.70
2012,04,01,18,00,6.70
2012,04,01,18,01,6.70
2012,04,01,18,02,6.70
2012,04,01,18,03,6.70
2012,04,01,18,04,6.70
2012,04,01,18,05,6.70
2012,04,01,18,06,6.70
2012,04,01,18,07,6.70
2012,04,01,18,08,6.70
2012,04,01,18,09,6.70
2012,04,01,18,10,6.70
2012,04,01,18,11,6.70
2012,04,01,18,12,6.70
2012,04,01,18,13,6.70
2012,04,01,18,14,6.70
2012,04,01,18,15,6.70
2012,04,01,18,16,6.70
2012,04,01,18,17,6.70
2012,04,01,18,18,6.70
2012,04,01,18,19,6.70
2012,04,01,18,20,6.70
2012,04,01,18,21,6.70
2012,04,01,18,22,6.70
2012,04,01,18,23,6.70
2012,04,01,18,24,6.70
2012,04,01,18,25,6.70
2012,04,01,18,26,6.70
2012,04,01,18,27,6.70
2012,04,01,18,28,6.80
2012,04,01,18,29,6.80
2012,04,01,18,30,6.80
2012,04,01,18,31,6.80
2012,04,01,18,32,6.80
2012,04,01,18,33,6.80
2012,04,01,18,34,6.90
2012,04,01,18,35,6.80
2012,04,01,18,36,6.80
2012,04,01,18,37,6.80
2012,04,01,18,38,6.80
2012,04,01,18,39,6.80
2012,04,01,18,40,6.90
2012,04,01,18,41,6.90
2012,04,01,18,42,6.90
2012,04,01,18,43,6.80
2012,04,01,18,44,6.80
2012,04,01,18,45,6.80
2012,04,01,18,46,6.80
2012,04,01,18,47,6.80
2012,04,01,18,48,6.80
2012,04,01,18,49,6.80
2012,04,01,18,50,6.80
2012,04,01,18,51,6.80
2012,04,01,18,52,6.80
2012,04,01,18,53,6.80
2012,04,01,18,54,6.80
2012,04,01,18,55,6.80
2012,04,01,18,56,6.80
2012,04,01,18,57,6.80
2012,04,01,18,58,6.80
2012,04,01,18,59,6.80
2012,04,01,19,00,6.70
2012,04,01,19,01,6.70
2012,04,01,19,02,6.70
2012,04,01,19,03,6.70
2012,04,01,19,04,6.70
2012,04,01,19,05,6.70
2012,04,01,19,06,6.70
2012,04,01,19,07,6.70
2012,04,01,19,08,6.60
2012,04,01,19,09,6.60
2012,04,01,19,10,6.60
2012,04,01,19,11,6.60
2012,04,01,19,12,6.60
2012,04,01,19,13,6.60
2012,04,01,19,14,6.60
2012,04,01,19,15,6.60
2012,04,01,19,16,6.60
2012,04,01,19,17,6.60
2012,04,01,19,18,6.60
2012,04,01,19,19,6.50
2012,04,01,19,20,6.50
2012,04,01,19,21,6.50
2012,04,01,19,22,6.50
2012,04,01,19,23,6.50
2012,04,01,19,24,6.50
2012,04,01,19,25,6.50
2012,04,01,19,26,6.40
2012,04,01,19,27,6.40
2012,04,01,19,28,6.40
2012,04,01,19,29,6.40
2012,04,01,19,30,6.40
2012,04,01,19,31,6.40
2012,04,01,19,32,6.40
2012,04,01,19,33,6.40
2012,04,01,19,34,6.30
2012,04,01,19,35,6.30
2012,04,01,19,36,6.30
2012,04,01,19,37,6.30
2012,04,01,19,38,6.30
2012,04,01,19,39,6.30
2012,04,01,19,40,6.30
2012,04,01,19,41,6.20
2012,04,01,19,42,6.20
2012,04,01,19,43,6.20
2012,04,01,19,44,6.20
2012,04,01,19,45,6.20
2012,04,01,19,46,6.20
2012,04,01,19,47,6.20
2012,04,01,19,48,6.20
2012,04,01,19,49,6.20
2012,04,01,19,50,6.20
2012,04,01,19,51,6.10
2012,04,01,19,52,6.10
2012,04,01,19,53,6.10
2012,04,01,19,54,6.10
2012,04,01,19,55,6.10
2012,04,01,19,56,6.10
2012,04,01,19,57,6.10
2012,04,01,19,58,6.10
2012,04,01,19,59,6.10
2012,04,01,20,00,6.10
2012,04,01,20,01,6.10
2012,04,01,20,02,6.10
2012,04,01,20,03,6.10
2012,04,01,20,04,6.00
2012,04,01,20,05,6.00
2012,04,01,20,06,6.00
2012,04,01,20,07,6.00
2012,04,01,20,08,5.90
2012,04,01,20,09,5.90
2012,04,01,20,10,5.90
2012,04,01,20,11,5.90
2012,04,01,20,12,5.90
2012,04,01,20,13,5.90
2012,04,01,20,14,5.80
2012,04,01,20,15,5.80
2012,04,01,20,16,5.80
2012,04,01,20,17,5.80
2012,04,01,20,18,5.80
2012,04,01,20,19,5.80
2012,04,01,20,20,5.80
2012,04,01,20,21,5.80
2012,04,01,20,22,5.80
2012,04,01,20,23,5.80
2012,04,01,20,24,5.80
2012,04,01,20,25,5.80
2012,04,01,20,26,5.80
2012,04,01,20,27,5.80
2012,04,01,20,28,5.80
2012,04,01,20,29,5.80
2012,04,01,20,30,5.80
2012,04,01,20,31,5.80
2012,04,01,20,32,5.80
2012,04,01,20,33,5.70
2012,04,01,20,34,5.70
2012,04,01,20,35,5.70
2012,04,01,20,36,5.70
2012,04,01,20,37,5.70
2012,04,01,20,38,5.70
2012,04,01,20,39,5.70
2012,04,01,20,40,5.70
2012,04,01,20,41,5.60
2012,04,01,20,42,5.60
2012,04,01,20,43,5.60
2012,04,01,20,44,5.60
2012,04,01,20,45,5.60
2012,04,01,20,46,5.60
2012,04,01,20,47,5.60
2012,04,01,20,48,5.60
2012,04,01,20,49,5.60
2012,04,01,20,50,5.60
2012,04,01,20,51,5.60
2012,04,01,20,52,5.60
2012,04,01,20,53,5.60
2012,04,01,20,54,5.60
2012,04,01,20,55,5.60
2012,04,01,20,56,5.60
2012,04,01,20,57,5.50
2012,04,01,20,58,5.50
2012,04,01,20,59,5.50
2012,04,01,21,00,5.50
2012,04,01,21,01,5.50
2012,04,01,21,02,5.50
2012,04,01,21,03,5.50
2012,04,01,21,04,5.60
2012,04,01,21,05,5.60
2012,04,01,21,06,5.60
2012,04,01,21,07,5.60
2012,04,01,21,08,5.60
2012,04,01,21,09,5.60
2012,04,01,21,10,5.60
2012,04,01,21,11,5.50
2012,04,01,21,12,5.50
2012,04,01,21,13,5.50
2012,04,01,21,14,5.50
2012,04,01,21,15,5.50
2012,04,01,21,16,5.60
2012,04,01,21,17,5.50
2012,04,01,21,18,5.50
2012,04,01,21,19,5.50
2012,04,01,21,20,5.50
2012,04,01,21,21,5.50
2012,04,01,21,22,5.40
2012,04,01,21,23,5.40
2012,04,01,21,24,5.40
2012,04,01,21,25,5.40
2012,04,01,21,26,5.40
2012,04,01,21,27,5.30
2012,04,01,21,28,5.30
2012,04,01,21,29,5.30
2012,04,01,21,30,5.20
2012,04,01,21,31,5.20
2012,04,01,21,32,5.20
2012,04,01,21,33,5.20
2012,04,01,21,34,5.20
2012,04,01,21,35,5.10
2012,04,01,21,36,5.10
2012,04,01,21,37,5.10
2012,04,01,21,38,5.10
2012,04,01,21,39,5.10
2012,04,01,21,40,5.00
2012,04,01,21,41,5.00
2012,04,01,21,42,5.00
2012,04,01,21,43,4.90
2012,04,01,21,44,4.90
2012,04,01,21,45,4.90
2012,04,01,21,46,4.80
2012,04,01,21,47,4.80
2012,04,01,21,48,4.80
2012,04,01,21,49,4.80
2012,04,01,21,50,4.80
2012,04,01,21,51,4.80
2012,04,01,21,52,4.80
2012,04,01,21,53,4.80
2012,04,01,21,54,4.80
2012,04,01,21,55,4.80
2012,04,01,21,56,4.90
2012,04,01,21,57,5.00
2012,04,01,21,58,5.00
2012,04,01,21,59,5.10
2012,04,01,22,00,5.20
2012,04,01,22,01,5.30
2012,04,01,22,02,5.30
2012,04,01,22,03,5.40
2012,04,01,22,04,5.40
2012,04,01,22,05,5.40
2012,04,01,22,06,5.40
2012,04,01,22,07,5.40
2012,04,01,22,08,5.40
2012,04,01,22,09,5.40
2012,04,01,22,10,5.40
2012,04,01,22,11,5.40
2012,04,01,22,12,5.30
2012,04,01,22,13,5.30
2012,04,01,22,14,5.40
2012,04,01,22,15,5.40
2012,04,01,22,16,5.40
2012,04,01,22,17,5.50
2012,04,01,22,18,5.60
2012,04,01,22,19,5.60
2012,04,01,22,20,5.60
2012,04,01,22,21,5.60
2012,04,01,22,22,5.60
2012,04,01,22,23,5.60
2012,04,01,22,24,5.60
2012,04,01,22,25,5.50
2012,04,01,22,26,5.50
2012,04,01,22,27,5.50
2012,04,01,22,28,5.50
2012,04,01,22,29,5.50
2012,04,01,22,30,5.50
2012,04,01,22,31,5.60
2012,04,01,22,32,5.50
2012,04,01,22,33,5.50
2012,04,01,22,34,5.50
2012,04,01,22,35,5.40
2012,04,01,22,36,5.40
2012,04,01,22,37,5.40
2012,04,01,22,38,5.40
2012,04,01,22,39,5.40
2012,04,01,22,40,5.30
2012,04,01,22,41,5.30
2012,04,01,22,42,5.30
2012,04,01,22,43,5.20
2012,04,01,22,44,5.20
2012,04,01,22,45,5.10
2012,04,01,22,46,5.10
2012,04,01,22,47,5.10
2012,04,01,22,48,5.10
2012,04,01,22,49,5.10
2012,04,01,22,50,5.10
2012,04,01,22,51,5.10
2012,04,01,22,52,5.10
2012,04,01,22,53,5.10
2012,04,01,22,54,5.00
2012,04,01,22,55,5.00
2012,04,01,22,56,4.90
2012,04,01,22,57,4.90
2012,04,01,22,58,4.80
2012,04,01,22,59,4.70
2012,04,01,23,00,4.60
2012,04,01,23,01,4.50
2012,04,01,23,02,4.40
2012,04,01,23,03,4.30
2012,04,01,23,04,4.20
2012,04,01,23,05,4.10
2012,04,01,23,06,4.10
2012,04,01,23,07,4.00
2012,04,01,23,08,4.00
2012,04,01,23,09,3.90
2012,04,01,23,10,3.90
2012,04,01,23,11,4.00